Location: Newark
(45.5000°N, 11.4167°E)
Time: 04:47:24
(UTC+00:00)

A-11 Canister half - Pass Details

Date: 19 August 2019
Orbit: 1514 x 1686 km, 47.2° (Epoch: 15 September)

Event Time Altitude Azimuth Distance (km) Brightness Sun altitude
Rises 23:20:31 0° 291° (WNW) 4,813 11.8 -31.9°
Reaches altitude 10° 23:23:37 10° 289° (WNW) 3,848 11.2 -31.9°
Maximum altitude 23:33:21 67° 210° (SSW) 1,772 8.9 -31.8°
Enters shadow 23:34:13 65° 183° (S) 1,801 8.9 -31.8°
Drops below altitude 10° 23:43:21 10° 130° (SE) 3,939 - -31.6°
Sets 23:46:33 0° 128° (SE) 4,931 - -31.5°
